Der Flugplatz Bonn-Hangelar

Wo wir fliegen.

Vorfeld
Blick auf das Vorfeld
Tankstelle
Blick auf die Tankstelle

Wir fliegen auf dem Gelände des Flugplatz Bonn-Hangelar, betrieben von der Flugplatzgesellschaft Hangelar mbH. Dieses befindet sich in St. Augustin, wenige Minuten von Bonn entfernt. Eine Anfahrt können Sie hier sehen bzw. sich berechnen lassen.

Der Flugplatz selbst besitzt eine lange Geschichte. Seit über 100 Jahren wird hier geflogen.

Damit dies auch weiterhin gefahrlos erfolgen kann, wird sämtlicher Flugbetrieb stets gemäß den Vorgaben der Deutschen Flugsicherung (dfs) durchgeführt. Im Zweifel ist Rücksprache mit dem Tower zu halten!

Ebenso sind die Benutzungsordnungen Teil 1 und Teil 2 des Flugplatzes hier zu finden.

Wetter Informationen

An dieser Stelle möchten wir ein paar Wetterinformationen bereitstellen.

Die hier dargestellten Werte erheben keinen Anspruch auf Vollständigkeit oder Aktualität und ersetzen keine Flugvorbereitung!

Köln/Bonn

MTAR

EDDK 160020Z AUTO 14006KT CAVOK 18/14 Q1007 NOSIG

(hier klicken für Details)

TAF

TAF EDDK 151700Z 1518/1624 13004KT 9999 FEW040 BECMG 1608/1611 21005KT BECMG 1613/1616 27005KT BECMG 1617/1620 09004KT

(hier klicken für Details)

Windkarte für Europa
Windkarte

Die Wetterkarten werden mit freundlicher Unterstützung von Top-Meteo bereitgestellt.

Termikkarte für Europa
Bodenkarte